Regional Weather Roundup
Issued by NWS

Home | Current Version | Previous Version | Text Only | Print | Product List | Glossary On
Versions: 1 2 3 4 5 6 7 8 9 10 11 12 13 14 15 16 17 18 19 20 21 22 23 24 25 26 27 28 29 30 31 32 33 34 35 36 37 38 39 40 41 42 43 44 45 46 47 48 49 50
000
ASUS45 KABQ 180510
RWRNM
NEW MEXICO REGIONAL WEATHER ROUNDUP
NATIONAL WEATHER SERVICE ALBUQUERQUE NM
1000 PM MST TUE JAN 17 2017

NOTE: "FAIR" MEANS FEW OR NO CLOUDS BELOW 12,000 FEET AGL WITH NO
       SIGNIFICANT WEATHER OR OBSTRUCTIONS TO VISION.

      THIS PRODUCT IS RELEASED AS TWO VERSIONS.  ONE VERSION NEAR
      THE TOP OF THE HOUR CONTAINING PRELIMINARY DATA FROM ALBUQUERQUE
      AND OTHER STATIONS.  A FINAL VERSION WITH ADDITIONAL DATA IS
      ISSUED ABOUT 10 MINUTES AFTER THE HOUR.

NMZ501-503-504-510>518-180600-
NORTHWEST PLATEAU/NORTHCENTRAL MOUNTAINS

CITY           SKY/WX    TMP DP  RH WIND       PRES   REMARKS
FARMINGTON     FAIR      33  30  88 W7        30.13S WCI  27
LOS ALAMOS     FAIR      33  27  79 CALM      30.13S
SANTA FE       FAIR      30  27  88 CALM      30.11R
TAOS           FAIR      27  18  69 CALM      30.13R
ANGEL FIRE     FOG        8   6  92 SE5       30.14S VSB 1/2 WCI   0

$$
NMZ402-403-502-505>509-180600-
WESTCENTRAL MOUNTAINS/SOUTHWEST MOUNTAINS

CITY           SKY/WX    TMP DP  RH WIND       PRES   REMARKS
GALLUP         FAIR      30  27  88 CALM      30.16R
GRANTS         FAIR      28  27  96 NW6       30.16S WCI  22
SILVER CITY    CLOUDY    39  38  94 CALM      30.17R

$$
NMZ407-409-411-412-180600-
SOUTHERN DESERTS

CITY           SKY/WX    TMP DP  RH WIND       PRES   REMARKS
DEMING         CLOUDY    39  38  96 W5        30.17R
LAS CRUCES     FAIR      40  38  96 S6        30.17R
HOLLOMAN AFB   MOCLDY    42  42 100 S6        30.19R
ALAMOGORDO     CLOUDY    41  41 100 SE3       30.17R
T OR C         FAIR      41  37  86 SW3       30.14R

$$
NMZ519>523-180600-
CENTRAL VALLEYS/CENTRAL HIGHLANDS

CITY           SKY/WX    TMP DP  RH WIND       PRES   REMARKS
ALBUQUERQUE    FAIR      40  34  79 SE6       30.13R
DOUBLE EAGLE   CLEAR     36  32  87 W8        30.13S WCI  29
MORIARTY ARPT  FAIR      29  25  86 CALM      30.14R
CLINES CORNERS FAIR      26  24  92 SW10      30.13  WCI  16
BELEN          FAIR      36  33  90 SW5       30.14R WCI  32
SOCORRO        CLOUDY    40  36  84 SW6       30.14R

$$
NMZ524>526-539-540-180600-
SOUTHCENTRAL MOUNTAINS

CITY           SKY/WX    TMP DP  RH WIND       PRES   REMARKS
RUIDOSO        CLOUDY    32  32 100 CALM      30.17S

$$
NMZ527>531-180600-
NORTHEAST HIGHLANDS/NORTHEAST PLAINS

CITY           SKY/WX    TMP DP  RH WIND       PRES   REMARKS
LAS VEGAS      FAIR      27  24  89 E6        30.10R WCI  20
RATON          FAIR      23  19  85 NE6       30.10R WCI  16
CLAYTON        FAIR      34  34 100 SW9       30.09R WCI  27

$$
NMZ532>537-180600-
EASTCENTRAL PLAINS

CITY           SKY/WX    TMP DP  RH WIND       PRES   REMARKS
TUCUMCARI      CLOUDY    45  40  82 S14       30.12R
CANNON AFB     RAIN      42  42 100 SW6       30.17R
CLOVIS AIRPORT CLOUDY    43  39  87 S7        30.17R

$$
NMZ028-029-538-180600-
SOUTHEAST PLAINS

CITY           SKY/WX    TMP DP  RH WIND       PRES   REMARKS
ROSWELL        CLOUDY    42  39  89 SW6       30.17R
ARTESIA        CLOUDY    43  43 100 CALM      30.18S
CARLSBAD       CLOUDY    44  43  96 CALM      30.17S


$$




USA.gov is the U.S. government's official web portal to all federal, state and local government web resources and services.